Time,TemperatureF,DewpointF,PressureIn,WindDirection,WindDirectionDegrees,WindSpeedMPH,WindSpeedGustMPH,Humidity,HourlyPrecipIn,Conditions,Clouds,dailyrainin,SoftwareType,DateUTC
2013-07-25 00:02:00,71.3,67.2,29.89,SW,226,0.0,0.0,87,0.00,,,0.00,Wunderground v.1.15,2013-07-25 04:02:00,
2013-07-25 00:04:00,71.2,66.8,29.89,SW,226,0.0,0.0,86,0.00,,,0.00,Wunderground v.1.15,2013-07-25 04:04:00,
2013-07-25 00:08:00,71.0,66.6,29.89,SW,225,0.0,0.0,86,0.00,,,0.00,Wunderground v.1.15,2013-07-25 04:08:00,
2013-07-25 00:12:00,71.0,66.9,29.89,SW,226,0.0,0.0,87,0.00,,,0.00,Wunderground v.1.15,2013-07-25 04:12:00,
2013-07-25 00:14:00,71.0,66.9,29.90,SW,225,0.0,0.0,87,0.00,,,0.00,Wunderground v.1.15,2013-07-25 04:14:00,
2013-07-25 00:20:00,70.7,66.6,29.90,SSW,212,1.0,3.0,87,0.00,,,0.00,Wunderground v.1.15,2013-07-25 04:20:00,
2013-07-25 00:26:00,70.6,66.5,29.90,SSW,203,2.0,2.0,87,0.00,,,0.00,Wunderground v.1.15,2013-07-25 04:26:00,
2013-07-25 00:32:00,70.9,66.5,29.90,SSW,198,1.0,1.0,86,0.00,,,0.00,Wunderground v.1.15,2013-07-25 04:32:00,
2013-07-25 00:38:00,70.8,66.7,29.90,SSW,199,0.0,1.0,87,0.00,,,0.00,Wunderground v.1.15,2013-07-25 04:38:00,
2013-07-25 00:44:00,70.4,66.3,29.91,SSW,199,0.0,0.0,87,0.00,,,0.00,Wunderground v.1.15,2013-07-25 04:44:00,
2013-07-25 00:50:00,70.0,66.3,29.91,SW,218,1.0,3.0,88,0.00,,,0.00,Wunderground v.1.15,2013-07-25 04:50:00,
2013-07-25 00:56:00,69.7,66.3,29.91,SW,217,2.0,2.0,89,0.00,,,0.00,Wunderground v.1.15,2013-07-25 04:56:00,
2013-07-25 01:02:00,69.7,66.0,29.91,SW,215,1.0,2.0,88,0.00,,,0.00,Wunderground v.1.15,2013-07-25 05:02:00,
2013-07-25 01:08:00,69.5,66.1,29.91,SW,215,0.0,2.0,89,0.00,,,0.00,Wunderground v.1.15,2013-07-25 05:08:00,
2013-07-25 01:14:00,69.3,66.2,29.90,SW,215,0.0,1.0,90,0.00,,,0.00,Wunderground v.1.15,2013-07-25 05:14:00,
2013-07-25 01:20:00,69.2,65.8,29.90,SW,215,0.0,1.0,89,0.00,,,0.00,Wunderground v.1.15,2013-07-25 05:20:00,
2013-07-25 01:26:00,69.1,65.7,29.90,SW,215,0.0,1.0,89,0.00,,,0.00,Wunderground v.1.15,2013-07-25 05:26:00,
2013-07-25 01:32:00,69.2,65.8,29.90,SW,217,0.0,1.0,89,0.00,,,0.00,Wunderground v.1.15,2013-07-25 05:32:00,
2013-07-25 01:38:00,69.4,65.7,29.90,West,277,0.0,2.0,88,0.00,,,0.00,Wunderground v.1.15,2013-07-25 05:38:00,
2013-07-25 01:44:00,69.4,65.4,29.90,West,267,1.0,2.0,87,0.00,,,0.00,Wunderground v.1.15,2013-07-25 05:44:00,
2013-07-25 01:50:00,69.5,65.5,29.90,SW,232,1.0,1.0,87,0.00,,,0.00,Wunderground v.1.15,2013-07-25 05:50:00,
2013-07-25 01:56:00,69.5,65.1,29.90,West,264,0.0,1.0,86,0.00,,,0.00,Wunderground v.1.15,2013-07-25 05:56:00,
2013-07-25 02:02:00,69.5,65.5,29.90,West,262,0.0,1.0,87,0.00,,,0.00,Wunderground v.1.15,2013-07-25 06:02:00,
2013-07-25 02:08:00,69.3,65.3,29.89,West,263,0.0,1.0,87,0.00,,,0.00,Wunderground v.1.15,2013-07-25 06:08:00,
2013-07-25 02:14:00,69.2,65.2,29.90,WSW,252,0.0,1.0,87,0.00,,,0.00,Wunderground v.1.15,2013-07-25 06:14:00,
2013-07-25 02:20:00,68.9,64.9,29.89,SW,235,1.0,1.0,87,0.00,,,0.00,Wunderground v.1.15,2013-07-25 06:20:00,
2013-07-25 02:26:00,68.7,65.0,29.89,WSW,244,1.0,1.0,88,0.00,,,0.00,Wunderground v.1.15,2013-07-25 06:26:00,
2013-07-25 02:32:00,68.6,64.9,29.89,WSW,249,0.0,1.0,88,0.00,,,0.00,Wunderground v.1.15,2013-07-25 06:32:00,
2013-07-25 02:38:00,68.5,65.1,29.89,West,280,0.0,1.0,89,0.00,,,0.00,Wunderground v.1.15,2013-07-25 06:38:00,
2013-07-25 02:44:00,68.5,65.1,29.90,WNW,290,1.0,1.0,89,0.00,,,0.00,Wunderground v.1.15,2013-07-25 06:44:00,
2013-07-25 02:50:00,68.5,65.1,29.89,WNW,283,1.0,1.0,89,0.00,,,0.00,Wunderground v.1.15,2013-07-25 06:50:00,
2013-07-25 02:56:00,68.6,65.2,29.89,West,274,1.0,1.0,89,0.00,,,0.00,Wunderground v.1.15,2013-07-25 06:56:00,
2013-07-25 03:02:00,68.4,65.0,29.89,WNW,290,1.0,1.0,89,0.00,,,0.00,Wunderground v.1.15,2013-07-25 07:02:00,
2013-07-25 03:08:00,68.3,64.9,29.89,WNW,293,1.0,2.0,89,0.00,,,0.00,Wunderground v.1.15,2013-07-25 07:08:00,
2013-07-25 03:14:00,68.4,65.0,29.89,WNW,283,2.0,2.0,89,0.00,,,0.00,Wunderground v.1.15,2013-07-25 07:14:00,
2013-07-25 03:20:00,68.6,64.9,29.89,West,266,2.0,2.0,88,0.00,,,0.00,Wunderground v.1.15,2013-07-25 07:20:00,
2013-07-25 03:26:00,68.5,64.8,29.89,WNW,293,1.0,2.0,88,0.00,,,0.00,Wunderground v.1.15,2013-07-25 07:26:00,
2013-07-25 03:32:00,68.4,65.0,29.89,WNW,283,1.0,1.0,89,0.00,,,0.00,Wunderground v.1.15,2013-07-25 07:32:00,
2013-07-25 03:38:00,68.3,64.9,29.88,West,269,1.0,2.0,89,0.00,,,0.00,Wunderground v.1.15,2013-07-25 07:38:00,
2013-07-25 03:44:00,68.3,64.9,29.88,WNW,290,1.0,2.0,89,0.00,,,0.00,Wunderground v.1.15,2013-07-25 07:44:00,
2013-07-25 03:50:00,68.3,64.9,29.88,West,276,1.0,1.0,89,0.00,,,0.00,Wunderground v.1.15,2013-07-25 07:50:00,
2013-07-25 03:56:00,68.5,65.1,29.89,WNW,288,1.0,2.0,89,0.00,,,0.00,Wunderground v.1.15,2013-07-25 07:56:00,
2013-07-25 04:04:00,68.5,65.1,29.88,WNW,294,1.0,2.0,89,0.00,,,0.00,Wunderground v.1.15,2013-07-25 08:04:00,
2013-07-25 04:10:00,68.5,65.1,29.88,WNW,287,1.0,2.0,89,0.00,,,0.00,Wunderground v.1.15,2013-07-25 08:10:00,
2013-07-25 04:16:00,68.4,65.0,29.89,West,271,2.0,3.0,89,0.00,,,0.00,Wunderground v.1.15,2013-07-25 08:16:00,
2013-07-25 04:22:00,68.6,65.2,29.89,WNW,288,2.0,3.0,89,0.00,,,0.00,Wunderground v.1.15,2013-07-25 08:22:00,
2013-07-25 04:28:00,68.8,65.1,29.89,WNW,299,2.0,3.0,88,0.00,,,0.00,Wunderground v.1.15,2013-07-25 08:28:00,
2013-07-25 04:34:00,69.0,65.3,29.89,WNW,298,2.0,2.0,88,0.00,,,0.00,Wunderground v.1.15,2013-07-25 08:34:00,
2013-07-25 04:40:00,69.0,65.3,29.89,WNW,295,2.0,3.0,88,0.00,,,0.00,Wunderground v.1.15,2013-07-25 08:40:00,
2013-07-25 04:46:00,69.0,65.3,29.90,WNW,300,2.0,3.0,88,0.00,,,0.00,Wunderground v.1.15,2013-07-25 08:46:00,
2013-07-25 04:52:00,69.0,65.3,29.90,WNW,295,3.0,4.0,88,0.00,,,0.00,Wunderground v.1.15,2013-07-25 08:52:00,
2013-07-25 04:58:00,69.0,65.3,29.90,WNW,295,3.0,4.0,88,0.00,,,0.00,Wunderground v.1.15,2013-07-25 08:58:00,
2013-07-25 05:04:00,69.0,65.3,29.90,WNW,295,3.0,3.0,88,0.00,,,0.00,Wunderground v.1.15,2013-07-25 09:04:00,
2013-07-25 05:10:00,68.9,65.2,29.90,NW,307,2.0,2.0,88,0.00,,,0.00,Wunderground v.1.15,2013-07-25 09:10:00,
2013-07-25 05:16:00,68.8,65.1,29.90,WNW,284,2.0,3.0,88,0.00,,,0.00,Wunderground v.1.15,2013-07-25 09:16:00,
2013-07-25 05:22:00,68.7,65.0,29.90,NW,307,2.0,2.0,88,0.00,,,0.00,Wunderground v.1.15,2013-07-25 09:22:00,
2013-07-25 05:28:00,68.5,64.8,29.90,NW,321,2.0,3.0,88,0.00,,,0.00,Wunderground v.1.15,2013-07-25 09:28:00,
2013-07-25 05:34:00,68.3,64.9,29.90,WNW,290,2.0,4.0,89,0.00,,,0.00,Wunderground v.1.15,2013-07-25 09:34:00,
2013-07-25 05:40:00,68.2,64.5,29.90,WNW,297,3.0,3.0,88,0.00,,,0.00,Wunderground v.1.15,2013-07-25 09:40:00,
2013-07-25 05:46:00,68.1,64.7,29.90,WNW,293,3.0,4.0,89,0.00,,,0.00,Wunderground v.1.15,2013-07-25 09:46:00,
2013-07-25 05:52:00,67.9,64.5,29.90,WNW,288,3.0,4.0,89,0.00,,,0.00,Wunderground v.1.15,2013-07-25 09:52:00,
2013-07-25 05:58:00,67.8,64.4,29.90,WNW,297,3.0,4.0,89,0.00,,,0.00,Wunderground v.1.15,2013-07-25 09:58:00,
2013-07-25 06:04:00,67.7,64.3,29.90,WNW,295,3.0,3.0,89,0.00,,,0.00,Wunderground v.1.15,2013-07-25 10:04:00,
2013-07-25 06:10:00,67.6,64.2,29.91,WNW,287,2.0,2.0,89,0.00,,,0.00,Wunderground v.1.15,2013-07-25 10:10:00,
2013-07-25 06:16:00,67.5,64.1,29.91,WNW,288,2.0,2.0,89,0.00,,,0.00,Wunderground v.1.15,2013-07-25 10:16:00,
2013-07-25 06:22:00,67.4,64.0,29.92,WNW,288,2.0,2.0,89,0.00,,,0.00,Wunderground v.1.15,2013-07-25 10:22:00,
2013-07-25 06:28:00,67.3,63.9,29.92,WNW,285,2.0,2.0,89,0.00,,,0.00,Wunderground v.1.15,2013-07-25 10:28:00,
2013-07-25 06:34:00,67.3,63.9,29.92,West,269,2.0,3.0,89,0.00,,,0.00,Wunderground v.1.15,2013-07-25 10:34:00,
2013-07-25 06:40:00,67.3,63.9,29.93,NW,308,3.0,3.0,89,0.00,,,0.00,Wunderground v.1.15,2013-07-25 10:40:00,
2013-07-25 06:46:00,67.4,64.0,29.93,WNW,282,3.0,3.0,89,0.00,,,0.00,Wunderground v.1.15,2013-07-25 10:46:00,
2013-07-25 06:52:00,67.6,63.9,29.93,NW,312,3.0,4.0,88,0.00,,,0.00,Wunderground v.1.15,2013-07-25 10:52:00,
2013-07-25 06:58:00,67.8,64.1,29.93,West,281,3.0,4.0,88,0.00,,,0.00,Wunderground v.1.15,2013-07-25 10:58:00,
2013-07-25 07:04:00,68.1,64.1,29.93,NW,325,3.0,4.0,87,0.00,,,0.00,Wunderground v.1.15,2013-07-25 11:04:00,
2013-07-25 07:10:00,68.4,64.0,29.93,NW,312,3.0,3.0,86,0.00,,,0.00,Wunderground v.1.15,2013-07-25 11:10:00,
2013-07-25 07:16:00,68.7,64.3,29.94,NNW,327,3.0,3.0,86,0.00,,,0.00,Wunderground v.1.15,2013-07-25 11:16:00,
2013-07-25 07:22:00,68.7,64.3,29.94,NW,320,3.0,3.0,86,0.00,,,0.00,Wunderground v.1.15,2013-07-25 11:22:00,
2013-07-25 07:28:00,68.8,64.4,29.94,NW,323,3.0,4.0,86,0.00,,,0.00,Wunderground v.1.15,2013-07-25 11:28:00,
2013-07-25 07:34:00,69.4,65.0,29.94,NW,320,2.0,3.0,86,0.00,,,0.00,Wunderground v.1.15,2013-07-25 11:34:00,
2013-07-25 07:40:00,69.9,64.8,29.94,NNW,333,2.0,3.0,84,0.00,,,0.00,Wunderground v.1.15,2013-07-25 11:40:00,
2013-07-25 07:48:00,69.9,64.5,29.94,NNW,327,4.0,5.0,83,0.00,,,0.00,Wunderground v.1.15,2013-07-25 11:48:00,
2013-07-25 07:54:00,70.2,64.4,29.94,NW,314,4.0,4.0,82,0.00,,,0.00,Wunderground v.1.15,2013-07-25 11:54:00,
2013-07-25 08:00:00,70.7,65.3,29.95,NW,322,4.0,4.0,83,0.00,,,0.00,Wunderground v.1.15,2013-07-25 12:00:00,
2013-07-25 08:06:00,71.2,65.4,29.95,NW,311,3.0,6.0,82,0.00,,,0.00,Wunderground v.1.15,2013-07-25 12:06:00,
2013-07-25 08:12:00,71.3,64.8,29.95,NNW,343,4.0,5.0,80,0.00,,,0.00,Wunderground v.1.15,2013-07-25 12:12:00,
2013-07-25 08:18:00,71.3,64.1,29.95,NW,307,5.0,7.0,78,0.00,,,0.00,Wunderground v.1.15,2013-07-25 12:18:00,
2013-07-25 08:24:00,71.3,64.4,29.95,NW,315,5.0,8.0,79,0.00,,,0.00,Wunderground v.1.15,2013-07-25 12:24:00,
2013-07-25 08:30:00,71.5,64.3,29.95,NW,307,5.0,5.0,78,0.00,,,0.00,Wunderground v.1.15,2013-07-25 12:30:00,
2013-07-25 08:36:00,71.8,64.6,29.95,NNW,327,4.0,5.0,78,0.00,,,0.00,Wunderground v.1.15,2013-07-25 12:36:00,
2013-07-25 08:42:00,72.0,64.8,29.95,NW,326,4.0,6.0,78,0.00,,,0.00,Wunderground v.1.15,2013-07-25 12:42:00,
2013-07-25 08:48:00,72.1,64.1,29.96,NW,312,4.0,6.0,76,0.00,,,0.00,Wunderground v.1.15,2013-07-25 12:48:00,
2013-07-25 08:54:00,72.2,64.2,29.96,NNW,327,4.0,7.0,76,0.00,,,0.00,Wunderground v.1.15,2013-07-25 12:54:00,
2013-07-25 09:00:00,72.5,64.5,29.96,North,349,4.0,4.0,76,0.00,,,0.00,Wunderground v.1.15,2013-07-25 13:00:00,
2013-07-25 09:06:00,72.5,63.7,29.96,North,354,4.0,7.0,74,0.00,,,0.00,Wunderground v.1.15,2013-07-25 13:06:00,
2013-07-25 09:12:00,72.7,63.9,29.96,NW,321,4.0,6.0,74,0.00,,,0.00,Wunderground v.1.15,2013-07-25 13:12:00,
2013-07-25 09:18:00,72.9,63.7,29.96,North,354,4.0,6.0,73,0.00,,,0.00,Wunderground v.1.15,2013-07-25 13:18:00,
2013-07-25 09:24:00,73.2,63.6,29.97,NNE,12,4.0,5.0,72,0.00,,,0.00,Wunderground v.1.15,2013-07-25 13:24:00,
2013-07-25 09:30:00,72.9,64.9,29.97,NW,325,4.0,4.0,76,0.00,,,0.00,Wunderground v.1.15,2013-07-25 13:30:00,
2013-07-25 09:38:00,73.1,63.9,29.97,NNW,333,4.0,5.0,73,0.00,,,0.00,Wunderground v.1.15,2013-07-25 13:38:00,
2013-07-25 09:44:00,73.3,65.3,29.97,NNW,334,4.0,4.0,76,0.00,,,0.00,Wunderground v.1.15,2013-07-25 13:44:00,
2013-07-25 09:50:00,73.7,64.5,29.97,WNW,302,3.0,3.0,73,0.00,,,0.00,Wunderground v.1.15,2013-07-25 13:50:00,
2013-07-25 09:56:00,73.5,64.3,29.97,NNW,337,4.0,5.0,73,0.00,,,0.00,Wunderground v.1.15,2013-07-25 13:56:00,
2013-07-25 10:02:00,73.5,64.7,29.96,NNW,335,4.0,4.0,74,0.00,,,0.00,Wunderground v.1.15,2013-07-25 14:02:00,
2013-07-25 10:08:00,73.7,65.3,29.96,North,352,3.0,7.0,75,0.00,,,0.00,Wunderground v.1.15,2013-07-25 14:08:00,
2013-07-25 10:14:00,74.2,65.4,29.95,NNE,27,3.0,4.0,74,0.00,,,0.00,Wunderground v.1.15,2013-07-25 14:14:00,
2013-07-25 10:20:00,74.1,65.7,29.96,North,356,4.0,6.0,75,0.00,,,0.00,Wunderground v.1.15,2013-07-25 14:20:00,
2013-07-25 10:26:00,74.2,65.8,29.96,WNW,302,3.0,6.0,75,0.00,,,0.00,Wunderground v.1.15,2013-07-25 14:26:00,
2013-07-25 10:32:00,74.5,66.4,29.96,NNW,335,3.0,4.0,76,0.00,,,0.00,Wunderground v.1.15,2013-07-25 14:32:00,
2013-07-25 10:38:00,74.7,65.5,29.96,NE,49,3.0,5.0,73,0.00,,,0.00,Wunderground v.1.15,2013-07-25 14:38:00,
2013-07-25 10:44:00,75.1,66.6,29.96,North,8,2.0,2.0,75,0.00,,,0.00,Wunderground v.1.15,2013-07-25 14:44:00,
2013-07-25 10:50:00,75.5,66.6,29.96,NNE,18,2.0,3.0,74,0.00,,,0.00,Wunderground v.1.15,2013-07-25 14:50:00,
2013-07-25 10:56:00,75.5,67.0,29.96,North,11,2.0,3.0,75,0.00,,,0.00,Wunderground v.1.15,2013-07-25 14:56:00,
2013-07-25 11:02:00,76.1,66.8,29.96,NW,318,2.0,4.0,73,0.00,,,0.00,Wunderground v.1.15,2013-07-25 15:02:00,
2013-07-25 11:08:00,75.8,66.9,29.96,NW,319,3.0,4.0,74,0.00,,,0.00,Wunderground v.1.15,2013-07-25 15:08:00,
2013-07-25 11:14:00,76.5,68.0,29.97,NNW,343,3.0,3.0,75,0.00,,,0.00,Wunderground v.1.15,2013-07-25 15:14:00,
2013-07-25 11:20:00,76.4,67.1,29.96,North,4,2.0,4.0,73,0.00,,,0.00,Wunderground v.1.15,2013-07-25 15:20:00,
2013-07-25 11:26:00,75.8,66.9,29.96,NNE,27,4.0,8.0,74,0.00,,,0.00,Wunderground v.1.15,2013-07-25 15:26:00,
2013-07-25 11:32:00,75.4,66.1,29.96,North,8,6.0,6.0,73,0.00,,,0.00,Wunderground v.1.15,2013-07-25 15:32:00,
2013-07-25 11:38:00,75.4,66.1,29.97,North,11,5.0,7.0,73,0.00,,,0.00,Wunderground v.1.15,2013-07-25 15:38:00,
2013-07-25 11:44:00,75.4,65.7,29.97,North,11,6.0,6.0,72,0.00,,,0.00,Wunderground v.1.15,2013-07-25 15:44:00,
2013-07-25 11:50:00,75.6,65.1,29.97,North,352,6.0,6.0,70,0.00,,,0.00,Wunderground v.1.15,2013-07-25 15:50:00,
2013-07-25 11:56:00,75.9,65.4,29.97,North,6,5.0,6.0,70,0.00,,,0.00,Wunderground v.1.15,2013-07-25 15:56:00,
2013-07-25 12:02:00,76.4,66.3,29.97,NNW,328,4.0,4.0,71,0.00,,,0.00,Wunderground v.1.15,2013-07-25 16:02:00,
2013-07-25 12:08:00,76.9,67.2,29.97,North,9,4.0,5.0,72,0.00,,,0.00,Wunderground v.1.15,2013-07-25 16:08:00,
2013-07-25 12:14:00,76.6,64.4,29.97,NNE,20,5.0,8.0,66,0.00,,,0.00,Wunderground v.1.15,2013-07-25 16:14:00,
2013-07-25 12:20:00,76.8,62.8,29.97,NW,304,5.0,6.0,62,0.00,,,0.00,Wunderground v.1.15,2013-07-25 16:20:00,
2013-07-25 12:26:00,77.1,64.4,29.97,NNW,327,5.0,6.0,65,0.00,,,0.00,Wunderground v.1.15,2013-07-25 16:26:00,
2013-07-25 12:32:00,77.2,64.1,29.97,North,4,5.0,5.0,64,0.00,,,0.00,Wunderground v.1.15,2013-07-25 16:32:00,
2013-07-25 12:38:00,77.4,65.1,29.97,NNE,18,5.0,6.0,66,0.00,,,0.00,Wunderground v.1.15,2013-07-25 16:38:00,
2013-07-25 12:44:00,77.2,63.2,29.97,NNE,13,5.0,7.0,62,0.00,,,0.00,Wunderground v.1.15,2013-07-25 16:44:00,
2013-07-25 12:50:00,77.3,62.3,29.97,NNE,20,6.0,6.0,60,0.00,,,0.00,Wunderground v.1.15,2013-07-25 16:50:00,
2013-07-25 12:56:00,77.4,62.9,29.97,NNE,30,5.0,6.0,61,0.00,,,0.00,Wunderground v.1.15,2013-07-25 16:56:00,
2013-07-25 13:02:00,77.7,62.7,29.98,NNE,28,5.0,5.0,60,0.00,,,0.00,Wunderground v.1.15,2013-07-25 17:02:00,
2013-07-25 13:08:00,78.2,62.2,29.98,North,6,4.0,5.0,58,0.00,,,0.00,Wunderground v.1.15,2013-07-25 17:08:00,
2013-07-25 13:14:00,78.5,63.9,29.98,NE,47,3.0,3.0,61,0.00,,,0.00,Wunderground v.1.15,2013-07-25 17:14:00,
2013-07-25 13:20:00,78.7,61.7,29.97,NNE,27,3.0,3.0,56,0.00,,,0.00,Wunderground v.1.15,2013-07-25 17:20:00,
2013-07-25 13:26:00,78.7,61.7,29.97,NNE,15,3.0,3.0,56,0.00,,,0.00,Wunderground v.1.15,2013-07-25 17:26:00,
2013-07-25 13:32:00,78.8,62.8,29.97,NNE,24,3.0,4.0,58,0.00,,,0.00,Wunderground v.1.15,2013-07-25 17:32:00,
2013-07-25 13:38:00,78.7,62.7,29.97,NNE,20,4.0,5.0,58,0.00,,,0.00,Wunderground v.1.15,2013-07-25 17:38:00,
2013-07-25 13:44:00,78.9,63.8,29.97,NE,48,4.0,4.0,60,0.00,,,0.00,Wunderground v.1.15,2013-07-25 17:44:00,
2013-07-25 13:50:00,78.9,62.4,29.97,NNE,30,4.0,4.0,57,0.00,,,0.00,Wunderground v.1.15,2013-07-25 17:50:00,
2013-07-25 13:56:00,79.2,62.7,29.97,NNE,32,3.0,4.0,57,0.00,,,0.00,Wunderground v.1.15,2013-07-25 17:56:00,
2013-07-25 14:02:00,79.5,62.4,29.97,ENE,60,2.0,4.0,56,0.00,,,0.00,Wunderground v.1.15,2013-07-25 18:02:00,
2013-07-25 14:08:00,79.7,64.6,29.97,NNE,21,3.0,4.0,60,0.00,,,0.00,Wunderground v.1.15,2013-07-25 18:08:00,
2013-07-25 14:14:00,79.7,63.1,29.97,North,350,4.0,5.0,57,0.00,,,0.00,Wunderground v.1.15,2013-07-25 18:14:00,
2013-07-25 14:20:00,79.4,63.8,29.97,NNE,18,5.0,7.0,59,0.00,,,0.00,Wunderground v.1.15,2013-07-25 18:20:00,
2013-07-25 14:26:00,79.0,63.0,29.97,NNE,29,6.0,8.0,58,0.00,,,0.00,Wunderground v.1.15,2013-07-25 18:26:00,
2013-07-25 14:32:00,78.9,63.8,29.97,NE,35,6.0,7.0,60,0.00,,,0.00,Wunderground v.1.15,2013-07-25 18:32:00,
2013-07-25 14:38:00,79.1,64.0,29.97,NNE,26,5.0,7.0,60,0.00,,,0.00,Wunderground v.1.15,2013-07-25 18:38:00,
2013-07-25 14:44:00,79.7,64.6,29.97,NE,45,4.0,5.0,60,0.00,,,0.00,Wunderground v.1.15,2013-07-25 18:44:00,
2013-07-25 14:50:00,80.0,64.9,29.97,ENE,61,3.0,3.0,60,0.00,,,0.00,Wunderground v.1.15,2013-07-25 18:50:00,
2013-07-25 14:56:00,80.2,64.6,29.97,NNE,18,3.0,4.0,59,0.00,,,0.00,Wunderground v.1.15,2013-07-25 18:56:00,
2013-07-25 15:02:00,79.7,65.5,29.97,NNE,15,3.0,3.0,62,0.00,,,0.00,Wunderground v.1.15,2013-07-25 19:02:00,
2013-07-25 15:08:00,79.9,65.7,29.97,NNE,20,4.0,5.0,62,0.00,,,0.00,Wunderground v.1.15,2013-07-25 19:08:00,
2013-07-25 15:14:00,79.8,64.2,29.97,NNE,19,2.0,3.0,59,0.00,,,0.00,Wunderground v.1.15,2013-07-25 19:14:00,
2013-07-25 15:20:00,80.1,63.5,29.97,East,101,1.0,1.0,57,0.00,,,0.00,Wunderground v.1.15,2013-07-25 19:20:00,
2013-07-25 15:26:00,80.7,64.1,29.97,SW,235,1.0,4.0,57,0.00,,,0.00,Wunderground v.1.15,2013-07-25 19:26:00,
2013-07-25 15:32:00,81.1,63.9,29.97,WSW,253,2.0,5.0,56,0.00,,,0.00,Wunderground v.1.15,2013-07-25 19:32:00,
2013-07-25 15:38:00,81.7,64.0,29.97,WSW,246,2.0,5.0,55,0.00,,,0.00,Wunderground v.1.15,2013-07-25 19:38:00,
2013-07-25 15:44:00,82.6,64.3,29.97,WSW,256,1.0,1.0,54,0.00,,,0.00,Wunderground v.1.15,2013-07-25 19:44:00,
2013-07-25 15:50:00,83.1,61.4,29.97,SW,222,2.0,5.0,48,0.00,,,0.00,Wunderground v.1.15,2013-07-25 19:50:00,
2013-07-25 15:56:00,83.7,61.9,29.97,WSW,256,2.0,5.0,48,0.00,,,0.00,Wunderground v.1.15,2013-07-25 19:56:00,
2013-07-25 16:02:00,83.2,62.1,29.97,SSW,203,4.0,6.0,49,0.00,,,0.00,Wunderground v.1.15,2013-07-25 20:02:00,
2013-07-25 16:08:00,82.7,62.7,29.97,NW,315,5.0,6.0,51,0.00,,,0.00,Wunderground v.1.15,2013-07-25 20:08:00,
2013-07-25 16:14:00,81.9,63.1,29.98,West,280,4.0,6.0,53,0.00,,,0.00,Wunderground v.1.15,2013-07-25 20:14:00,
2013-07-25 16:20:00,81.5,64.3,29.98,NW,325,3.0,3.0,56,0.00,,,0.00,Wunderground v.1.15,2013-07-25 20:20:00,
2013-07-25 16:26:00,81.6,65.4,29.98,West,264,3.0,3.0,58,0.00,,,0.00,Wunderground v.1.15,2013-07-25 20:26:00,
2013-07-25 16:32:00,82.1,64.3,29.97,NW,316,3.0,9.0,55,0.00,,,0.00,Wunderground v.1.15,2013-07-25 20:32:00,
2013-07-25 16:38:00,81.7,65.0,29.98,WNW,284,5.0,9.0,57,0.00,,,0.00,Wunderground v.1.15,2013-07-25 20:38:00,
2013-07-25 16:44:00,81.6,64.9,29.98,WNW,288,5.0,6.0,57,0.00,,,0.00,Wunderground v.1.15,2013-07-25 20:44:00,
2013-07-25 16:50:00,81.9,64.7,29.98,West,280,5.0,5.0,56,0.00,,,0.00,Wunderground v.1.15,2013-07-25 20:50:00,
2013-07-25 16:56:00,81.5,64.8,29.98,WSW,258,4.0,5.0,57,0.00,,,0.00,Wunderground v.1.15,2013-07-25 20:56:00,
2013-07-25 17:02:00,81.1,65.4,29.98,WSW,243,3.0,5.0,59,0.00,,,0.00,Wunderground v.1.15,2013-07-25 21:02:00,
2013-07-25 17:08:00,80.8,64.1,29.98,West,265,3.0,5.0,57,0.00,,,0.00,Wunderground v.1.15,2013-07-25 21:08:00,
2013-07-25 17:14:00,81.5,64.3,29.98,NW,316,3.0,4.0,56,0.00,,,0.00,Wunderground v.1.15,2013-07-25 21:14:00,
2013-07-25 17:20:00,82.0,63.2,29.98,WSW,238,3.0,7.0,53,0.00,,,0.00,Wunderground v.1.15,2013-07-25 21:20:00,
2013-07-25 17:26:00,82.1,63.8,29.98,WSW,258,4.0,7.0,54,0.00,,,0.00,Wunderground v.1.15,2013-07-25 21:26:00,
2013-07-25 17:32:00,82.0,64.2,29.98,WNW,288,3.0,5.0,55,0.00,,,0.00,Wunderground v.1.15,2013-07-25 21:32:00,
2013-07-25 17:38:00,82.1,63.8,29.98,West,260,3.0,8.0,54,0.00,,,0.00,Wunderground v.1.15,2013-07-25 21:38:00,
2013-07-25 17:44:00,82.2,62.8,29.98,West,266,5.0,5.0,52,0.00,,,0.00,Wunderground v.1.15,2013-07-25 21:44:00,
2013-07-25 17:50:00,82.1,63.3,29.98,WNW,300,4.0,4.0,53,0.00,,,0.00,Wunderground v.1.15,2013-07-25 21:50:00,
2013-07-25 17:56:00,81.9,63.6,29.98,WNW,295,4.0,6.0,54,0.00,,,0.00,Wunderground v.1.15,2013-07-25 21:56:00,
2013-07-25 18:02:00,81.6,62.8,29.98,WNW,302,5.0,6.0,53,0.00,,,0.00,Wunderground v.1.15,2013-07-25 22:02:00,
2013-07-25 18:08:00,81.4,63.2,29.98,NE,34,6.0,9.0,54,0.00,,,0.00,Wunderground v.1.15,2013-07-25 22:08:00,
2013-07-25 18:14:00,81.1,62.9,29.98,WSW,256,6.0,9.0,54,0.00,,,0.00,Wunderground v.1.15,2013-07-25 22:14:00,
2013-07-25 18:20:00,81.4,63.7,29.98,NW,319,5.0,9.0,55,0.00,,,0.00,Wunderground v.1.15,2013-07-25 22:20:00,
2013-07-25 18:26:00,81.5,63.3,29.98,West,269,4.0,9.0,54,0.00,,,0.00,Wunderground v.1.15,2013-07-25 22:26:00,
2013-07-25 18:32:00,81.3,62.5,29.98,SW,235,4.0,4.0,53,0.00,,,0.00,Wunderground v.1.15,2013-07-25 22:32:00,
2013-07-25 18:38:00,81.1,62.3,29.98,WNW,283,4.0,6.0,53,0.00,,,0.00,Wunderground v.1.15,2013-07-25 22:38:00,
2013-07-25 18:44:00,81.2,63.0,29.99,West,263,4.0,5.0,54,0.00,,,0.00,Wunderground v.1.15,2013-07-25 22:44:00,
2013-07-25 18:50:00,80.9,62.7,29.99,WSW,239,4.0,4.0,54,0.00,,,0.00,Wunderground v.1.15,2013-07-25 22:50:00,
2013-07-25 18:56:00,81.1,63.9,29.99,WNW,287,3.0,4.0,56,0.00,,,0.00,Wunderground v.1.15,2013-07-25 22:56:00,
2013-07-25 19:02:00,80.8,63.6,29.99,NW,305,3.0,7.0,56,0.00,,,0.00,Wunderground v.1.15,2013-07-25 23:02:00,
2013-07-25 19:08:00,80.5,63.4,29.99,West,264,4.0,7.0,56,0.00,,,0.00,Wunderground v.1.15,2013-07-25 23:08:00,
2013-07-25 19:14:00,80.3,63.2,30.00,West,273,3.0,6.0,56,0.00,,,0.00,Wunderground v.1.15,2013-07-25 23:14:00,
2013-07-25 19:20:00,79.9,63.3,30.00,West,269,3.0,5.0,57,0.00,,,0.00,Wunderground v.1.15,2013-07-25 23:20:00,
2013-07-25 19:26:00,79.7,63.6,30.00,West,280,4.0,5.0,58,0.00,,,0.00,Wunderground v.1.15,2013-07-25 23:26:00,
2013-07-25 19:32:00,79.2,62.7,30.00,WNW,292,6.0,9.0,57,0.00,,,0.00,Wunderground v.1.15,2013-07-25 23:32:00,
2013-07-25 19:38:00,78.9,62.9,30.00,West,274,6.0,9.0,58,0.00,,,0.00,Wunderground v.1.15,2013-07-25 23:38:00,
2013-07-25 19:44:00,78.7,62.7,30.01,WSW,248,5.0,5.0,58,0.00,,,0.00,Wunderground v.1.15,2013-07-25 23:44:00,
2013-07-25 19:50:00,78.6,64.0,30.00,South,183,3.0,3.0,61,0.00,,,0.00,Wunderground v.1.15,2013-07-25 23:50:00,
2013-07-25 19:56:00,78.4,62.9,30.01,SW,218,3.0,4.0,59,0.00,,,0.00,Wunderground v.1.15,2013-07-25 23:56:00,
2013-07-25 20:02:00,78.3,62.3,30.01,West,259,3.0,3.0,58,0.00,,,0.00,Wunderground v.1.15,2013-07-26 00:02:00,
2013-07-25 20:08:00,78.0,62.5,30.00,West,271,2.0,3.0,59,0.00,,,0.00,Wunderground v.1.15,2013-07-26 00:08:00,
2013-07-25 20:14:00,77.7,63.2,30.01,West,271,2.0,3.0,61,0.00,,,0.00,Wunderground v.1.15,2013-07-26 00:14:00,
2013-07-25 20:20:00,77.5,63.0,30.01,WSW,248,1.0,3.0,61,0.00,,,0.00,Wunderground v.1.15,2013-07-26 00:20:00,
2013-07-25 20:26:00,76.8,62.8,30.01,WSW,253,1.0,3.0,62,0.00,,,0.00,Wunderground v.1.15,2013-07-26 00:26:00,
2013-07-25 20:32:00,76.1,63.0,30.01,West,273,2.0,5.0,64,0.00,,,0.00,Wunderground v.1.15,2013-07-26 00:32:00,
2013-07-25 20:38:00,75.4,62.4,30.01,SW,236,2.0,5.0,64,0.00,,,0.00,Wunderground v.1.15,2013-07-26 00:38:00,
2013-07-25 20:44:00,74.9,62.3,30.01,WNW,287,2.0,2.0,65,0.00,,,0.00,Wunderground v.1.15,2013-07-26 00:44:00,
2013-07-25 20:50:00,74.4,62.3,30.01,NW,308,1.0,2.0,66,0.00,,,0.00,Wunderground v.1.15,2013-07-26 00:50:00,
2013-07-25 20:56:00,73.9,62.2,30.01,West,270,0.0,2.0,67,0.00,,,0.00,Wunderground v.1.15,2013-07-26 00:56:00,
2013-07-25 21:02:00,73.3,62.1,30.01,West,264,0.0,1.0,68,0.00,,,0.00,Wunderground v.1.15,2013-07-26 01:02:00,
2013-07-25 21:08:00,72.9,62.1,30.01,West,260,0.0,1.0,69,0.00,,,0.00,Wunderground v.1.15,2013-07-26 01:08:00,
2013-07-25 21:14:00,72.4,62.5,30.01,West,260,0.0,1.0,71,0.00,,,0.00,Wunderground v.1.15,2013-07-26 01:14:00,
2013-07-25 21:20:00,71.9,62.4,30.02,West,260,0.0,1.0,72,0.00,,,0.00,Wunderground v.1.15,2013-07-26 01:20:00,
2013-07-25 21:26:00,71.5,62.4,30.02,West,277,0.0,1.0,73,0.00,,,0.00,Wunderground v.1.15,2013-07-26 01:26:00,
2013-07-25 21:32:00,71.2,62.5,30.02,West,271,0.0,1.0,74,0.00,,,0.00,Wunderground v.1.15,2013-07-26 01:32:00,
2013-07-25 21:38:00,70.9,62.2,30.02,West,270,0.0,1.0,74,0.00,,,0.00,Wunderground v.1.15,2013-07-26 01:38:00,
2013-07-25 21:44:00,70.5,62.2,30.02,West,270,0.0,1.0,75,0.00,,,0.00,Wunderground v.1.15,2013-07-26 01:44:00,
2013-07-25 21:50:00,70.2,61.9,30.03,West,266,1.0,1.0,75,0.00,,,0.00,Wunderground v.1.15,2013-07-26 01:50:00,
2013-07-25 21:56:00,70.0,62.1,30.03,West,266,0.0,1.0,76,0.00,,,0.00,Wunderground v.1.15,2013-07-26 01:56:00,
2013-07-25 22:02:00,69.6,63.2,30.03,West,267,0.0,1.0,80,0.00,,,0.00,Wunderground v.1.15,2013-07-26 02:02:00,
2013-07-25 22:08:00,69.0,62.2,30.03,West,269,0.0,1.0,79,0.00,,,0.00,Wunderground v.1.15,2013-07-26 02:08:00,
2013-07-25 22:14:00,68.7,62.3,30.04,West,269,1.0,1.0,80,0.00,,,0.00,Wunderground v.1.15,2013-07-26 02:14:00,
2013-07-25 22:20:00,68.6,62.2,30.04,West,269,0.0,1.0,80,0.00,,,0.00,Wunderground v.1.15,2013-07-26 02:20:00,
2013-07-25 22:26:00,68.2,62.1,30.04,West,266,0.0,2.0,81,0.00,,,0.00,Wunderground v.1.15,2013-07-26 02:26:00,
2013-07-25 22:32:00,68.0,61.9,30.05,West,267,1.0,1.0,81,0.00,,,0.00,Wunderground v.1.15,2013-07-26 02:32:00,
2013-07-25 22:38:00,67.8,62.1,30.05,West,264,0.0,1.0,82,0.00,,,0.00,Wunderground v.1.15,2013-07-26 02:38:00,
2013-07-25 22:44:00,67.7,62.0,30.05,West,267,1.0,1.0,82,0.00,,,0.00,Wunderground v.1.15,2013-07-26 02:44:00,
2013-07-25 22:50:00,67.7,62.0,30.05,West,267,0.0,1.0,82,0.00,,,0.00,Wunderground v.1.15,2013-07-26 02:50:00,
2013-07-25 22:56:00,67.6,62.3,30.05,West,271,0.0,1.0,83,0.00,,,0.00,Wunderground v.1.15,2013-07-26 02:56:00,
2013-07-25 23:02:00,67.2,62.2,30.05,West,271,0.0,1.0,84,0.00,,,0.00,Wunderground v.1.15,2013-07-26 03:02:00,
2013-07-25 23:08:00,67.1,62.1,30.05,West,269,0.0,1.0,84,0.00,,,0.00,Wunderground v.1.15,2013-07-26 03:08:00,
2013-07-25 23:14:00,66.9,61.9,30.05,West,270,0.0,1.0,84,0.00,,,0.00,Wunderground v.1.15,2013-07-26 03:14:00,
2013-07-25 23:20:00,66.8,61.5,30.05,West,271,0.0,1.0,83,0.00,,,0.00,Wunderground v.1.15,2013-07-26 03:20:00,
2013-07-25 23:26:00,67.1,61.4,30.05,West,270,0.0,1.0,82,0.00,,,0.00,Wunderground v.1.15,2013-07-26 03:26:00,
2013-07-25 23:32:00,67.2,62.2,30.05,West,274,0.0,1.0,84,0.00,,,0.00,Wunderground v.1.15,2013-07-26 03:32:00,
2013-07-25 23:38:00,67.0,62.0,30.05,West,280,1.0,1.0,84,0.00,,,0.00,Wunderground v.1.15,2013-07-26 03:38:00,
2013-07-25 23:44:00,67.6,61.6,30.05,WNW,289,2.0,3.0,81,0.00,,,0.00,Wunderground v.1.15,2013-07-26 03:44:00,
2013-07-25 23:50:00,68.1,61.3,30.05,WNW,288,2.0,2.0,79,0.00,,,0.00,Wunderground v.1.15,2013-07-26 03:50:00,
2013-07-25 23:56:00,68.0,62.3,30.05,WNW,283,2.0,2.0,82,0.00,,,0.00,Wunderground v.1.15,2013-07-26 03:56:00,